User: anonymous   Login
Location: Unspecified
(0.0000°N, 0.0000°E)
Time: 19:17:41
(UTC+00:00)
Language:

STARLINK-32725 - Orbit

View from above orbital plane
View from above orbital plane
View from above satellite
View from above satellite

Ground track
Ground track

The orbit is defined by the following mean orbital elements,

1 62505U          26145.50130705 +.00000000 +00000-0 +45316-3 0 00002
2 62505  43.0041 214.7517 0001251 273.2802  86.7906 15.27589402    01
Epoch (UTC): 25 May 2026 12:01:52
Eccentricity: 0.0001251
inclination: 43.0041°
perigee height: 482 km
apogee height: 484 km
right ascension of ascending node: 214.7517°
argument of perigee: 273.2802°
revolutions per day: 15.27589402
mean anomaly at epoch: 86.7906°

The dashed part of the orbit path shows where the satellite is in the earth's shadow,  

DLR